TimeGMT,TemperatureF,Dew PointF,Humidity,Sea Level PressureIn,VisibilityMPH,Wind Direction,Wind SpeedMPH,Gust SpeedMPH,PrecipitationIn,Events,Conditions,WindDirDegrees,DateUTC
12:50 AM,50.0,50.0,100,30.51,4.3,SSW,9.2,-,N/A,,Mostly Cloudy,210,2013-01-06 00:50:00
1:50 AM,50.0,48.2,94,30.51,5.0,SW,8.1,-,N/A,,Mostly Cloudy,220,2013-01-06 01:50:00
2:50 AM,50,48,90,30.53,6,SSW,8.1,,,,Haze,210,2013-01-06 02:50:00
2:50 AM,50.0,48.2,94,30.51,6.2,SSW,8.1,-,N/A,,Haze,210,2013-01-06 02:50:00
3:50 AM,50.0,48.2,94,30.48,6.2,SSW,9.2,-,N/A,,Haze,210,2013-01-06 03:50:00
4:50 AM,50.0,48.2,94,30.48,6.2,SSW,6.9,-,N/A,,Haze,210,2013-01-06 04:50:00
5:50 AM,50,48,91,30.48,9,SSW,6.9,,,,Haze,200,2013-01-06 05:50:00
5:50 AM,50.0,48.2,94,30.48,6.2,SSW,6.9,-,N/A,,Haze,200,2013-01-06 05:50:00
6:50 AM,50.0,48.2,94,30.45,2.5,South,6.9,-,N/A,,Light Drizzle,190,2013-01-06 06:50:00
7:50 AM,50.0,50.0,100,30.48,3.1,South,9.2,-,N/A,,Mostly Cloudy,190,2013-01-06 07:50:00
8:50 AM,49,49,100,30.48,1,SSW,10.4,,,Rain,Light Drizzle,200,2013-01-06 08:50:00
8:50 AM,50.0,50.0,100,30.45,0.9,SSW,10.4,-,N/A,,Light Drizzle,200,2013-01-06 08:50:00
9:50 AM,50.0,50.0,100,30.45,0.4,SSW,10.4,-,N/A,,Light Drizzle,210,2013-01-06 09:50:00
10:50 AM,50.0,50.0,100,30.45,0.9,SSW,12.7,-,N/A,,Light Drizzle,200,2013-01-06 10:50:00
11:50 AM,50.0,50.0,100,30.45,0.6,SSW,12.7,-,N/A,,Light Drizzle,200,2013-01-06 11:50:00
12:50 PM,50.0,50.0,100,30.42,2.2,SSW,11.5,-,N/A,,Mostly Cloudy,200,2013-01-06 12:50:00
1:50 PM,50.0,50.0,100,30.39,1.2,SSW,10.4,-,N/A,,Light Drizzle,200,2013-01-06 13:50:00
2:11 PM,50.0,50.0,100,30.39,0.7,SSW,9.2,-,N/A,,Light Drizzle,200,2013-01-06 14:11:00
2:50 PM,50,49,96,30.41,1,SSW,10.4,,,Rain,Light Drizzle,200,2013-01-06 14:50:00
2:50 PM,50.0,50.0,100,30.39,1.2,SSW,10.4,-,N/A,,Light Drizzle,200,2013-01-06 14:50:00
3:50 PM,50.0,50.0,100,30.39,1.6,South,6.9,-,N/A,,Light Drizzle,180,2013-01-06 15:50:00
4:50 PM,50.0,50.0,100,30.36,1.2,South,6.9,-,N/A,,Light Drizzle,190,2013-01-06 16:50:00
5:50 PM,49,49,100,30.38,1,South,9.2,,,Rain,Light Drizzle,180,2013-01-06 17:50:00
5:50 PM,50.0,50.0,100,30.36,1.2,South,9.2,-,N/A,,Light Drizzle,180,2013-01-06 17:50:00
6:50 PM,50.0,48.2,94,30.36,2.5,South,9.2,-,N/A,,Light Drizzle,190,2013-01-06 18:50:00
7:50 PM,50.0,48.2,94,30.36,2.5,South,9.2,-,N/A,,Light Drizzle,190,2013-01-06 19:50:00
8:50 PM,50,49,95,30.38,2,SSW,10.4,,,Rain,Light Drizzle,200,2013-01-06 20:50:00
8:50 PM,50.0,48.2,94,30.36,2.5,SSW,10.4,-,N/A,,Overcast,200,2013-01-06 20:50:00
9:50 PM,50.0,48.2,94,30.36,2.5,SSW,11.5,-,N/A,,Overcast,200,2013-01-06 21:50:00
10:50 PM,48.2,48.2,100,30.36,2.5,SSW,12.7,-,N/A,,Light Drizzle,200,2013-01-06 22:50:00
11:50 PM,49,48,97,30.36,2,SSW,13.8,,,Rain,Light Drizzle,210,2013-01-06 23:50:00
11:50 PM,48.2,48.2,100,30.33,1.9,SSW,13.8,25.3,N/A,,Light Drizzle,210,2013-01-06 23:50:00